Location: Bailleul
(50.3375°N, 2.8513°E)
Time: 05:35:46
(UTC+00:00)

Cosmos 2221 - Pass Details

Date: 19 April 2021
Orbit: 593 x 615 km, 82.5° (Epoch: 09 May)

Event Time Altitude Azimuth Distance (km) Brightness Sun altitude
Exits shadow 22:42:19 42° 285° (WNW) 862 3.4 -26.5°
Maximum altitude 22:42:21 42° 286° (WNW) 862 3.4 -26.5°
Drops below altitude 10° 22:46:26 10° 358° (N) 1,945 6.0 -26.7°
Sets 22:48:45 0° 5° (N) 2,855 7.0 -26.8°
